TimeMDT,TemperatureF,Dew PointF,Humidity,Sea Level PressureIn,VisibilityMPH,Wind Direction,Wind SpeedMPH,Gust SpeedMPH,PrecipitationIn,Events,Conditions,WindDirDegrees,DateUTC
12:53 AM,55.9,41.0,57,29.76,10.0,NNW,11.5,-,N/A,,Clear,330,2013-10-01 06:53:00
1:53 AM,59.0,41.0,51,29.77,10.0,NNW,12.7,-,N/A,,Clear,330,2013-10-01 07:53:00
2:53 AM,55.0,42.1,62,29.80,10.0,North,10.4,-,N/A,,Clear,350,2013-10-01 08:53:00
3:53 AM,55.9,39.0,53,29.81,10.0,North,11.5,-,N/A,,Clear,360,2013-10-01 09:53:00
4:53 AM,48.9,41.0,74,29.86,10.0,NE,10.4,-,N/A,,Clear,50,2013-10-01 10:53:00
5:53 AM,46.9,37.9,71,29.92,10.0,ENE,8.1,-,N/A,,Clear,60,2013-10-01 11:53:00
6:53 AM,44.1,37.0,76,29.96,10.0,East,6.9,-,N/A,,Clear,80,2013-10-01 12:53:00
7:53 AM,50.0,34.0,54,29.98,10.0,ENE,9.2,-,N/A,,Clear,70,2013-10-01 13:53:00
8:53 AM,55.0,27.0,34,29.99,10.0,East,15.0,20.7,N/A,,Clear,80,2013-10-01 14:53:00
9:53 AM,59.0,25.0,27,29.99,10.0,East,15.0,-,N/A,,Clear,90,2013-10-01 15:53:00
10:53 AM,62.1,28.0,28,29.97,10.0,ESE,11.5,18.4,N/A,,Clear,110,2013-10-01 16:53:00
11:53 AM,64.0,30.9,29,29.96,10.0,ESE,10.4,17.3,N/A,,Clear,110,2013-10-01 17:53:00
12:53 PM,66.0,32.0,28,29.96,10.0,ESE,6.9,-,N/A,,Clear,110,2013-10-01 18:53:00
1:53 PM,69.1,35.1,29,29.91,10.0,SE,12.7,-,N/A,,Clear,140,2013-10-01 19:53:00
2:53 PM,71.1,37.0,29,29.90,10.0,SSE,9.2,19.6,N/A,,Clear,150,2013-10-01 20:53:00
3:53 PM,72.0,37.9,29,29.87,10.0,SE,10.4,-,N/A,,Clear,140,2013-10-01 21:53:00
4:53 PM,72.0,37.9,29,29.87,10.0,SE,13.8,-,N/A,,Clear,130,2013-10-01 22:53:00
5:53 PM,69.1,37.9,32,29.88,10.0,SE,15.0,-,N/A,,Clear,130,2013-10-01 23:53:00
6:53 PM,62.1,39.9,44,29.91,9.0,SE,10.4,-,N/A,,Clear,130,2013-10-02 00:53:00
7:53 PM,55.9,41.0,57,29.92,10.0,SE,9.2,-,N/A,,Clear,130,2013-10-02 01:53:00
8:53 PM,55.9,42.1,60,29.91,10.0,SE,11.5,-,N/A,,Clear,130,2013-10-02 02:53:00
9:53 PM,55.9,44.1,64,29.90,10.0,SSE,13.8,-,N/A,,Clear,150,2013-10-02 03:53:00
10:53 PM,54.0,44.1,69,29.90,10.0,SSE,11.5,-,N/A,,Clear,160,2013-10-02 04:53:00
11:53 PM,53.1,46.0,77,29.89,10.0,SSE,9.2,-,N/A,,Clear,160,2013-10-02 05:53:00